Location: Liberty
(32.6612°N, 88.7589°W)
Time: 22:05:22
(UTC+00:00)

Envisat - Visible Passes

Search period start: 22 January 2022 00:00
Search period end: 01 February 2022 00:00
Orbit: 764 x 766 km, 98.2° (Epoch: 22 January)

Date Brightness Start Highest point End Pass type
(mag) Time Alt. Az. Time Alt. Az. Time Alt. Az.
22 Jan 4.1 10:14:24 10° NNE 10:19:12 41° E 10:23:57 10° S visible
22 Jan 4.3 11:54:24 10° NNW 11:57:51 19° WNW 12:01:17 10° WSW visible
23 Jan 5.5 09:38:53 10° NE 09:42:08 17° E 09:45:22 10° SE visible
23 Jan 3.2 11:16:29 10° N 11:21:16 43° WNW 11:26:02 10° SW visible
24 Jan 3.0 10:39:25 10° NNE 10:44:30 78° ESE 10:49:34 10° S visible
25 Jan 4.6 10:03:04 10° NE 10:07:34 31° E 10:12:02 10° SSE visible
25 Jan 4.0 11:42:21 10° NNW 11:46:22 24° WNW 11:50:21 10° WSW visible
26 Jan 5.9 09:28:17 10° ENE 09:30:27 13° E 09:32:36 10° ESE visible
26 Jan 3.0 11:04:46 10° N 11:09:44 57° WNW 11:14:41 10° SSW visible
27 Jan 3.4 10:27:54 10° NNE 10:32:54 59° E 10:37:54 10° S visible
27 Jan 4.6 12:09:01 10° NW 12:11:22 13° WNW 12:13:42 10° W visible
28 Jan 5.1 09:51:51 10° NE 09:55:55 24° E 09:59:58 10° SSE visible
28 Jan 3.7 11:30:27 10° N 11:34:52 31° WNW 11:39:16 10° SW visible
29 Jan 2.8 10:53:06 10° N 10:58:10 75° WNW 11:03:13 10° SSW visible
30 Jan 4.0 10:16:27 10° NNE 10:21:17 44° E 10:26:07 10° S visible
30 Jan 4.3 11:56:39 10° NNW 11:59:54 17° WNW 12:03:08 10° WSW visible
31 Jan 5.4 09:40:47 10° NE 09:44:15 18° E 09:47:42 10° SE visible
31 Jan 3.3 11:18:37 10° N 11:23:21 40° WNW 11:28:03 10° SW visible
